McKean County Weather on FaceBook
Temperatures and Conditions from around the state of pennsylvania

NOAA NWS Hourly Roundups by Site

Regional Weather Roundup for State College, PA

To Select Another Site Choose from List

Select Site:  

124
ASUS41 KCTP 191410
RWRCTP

REGIONAL WEATHER ROUNDUP
NATIONAL WEATHER SERVICE STATE COLLEGE PA
1000 AM EDT TUE MAR 19 2019

Note: "fair" indicates few or no clouds below 12,000 feet with no
significant weather and/or obstructions to visibility.

* = STATION THAT DOES NOT REPORT PRECIPITATION /E.G. RAIN...SNOW...ETC/
    THUNDER OR FOG.

PAZ002>004-007>009-013>016-020>023-029>032-191500-
WESTERN PENNSYLVANIA

CITY           SKY/WX    TMP DP  RH WIND       PRES   REMARKS
ERIE           FAIR      37  24  59 SW9       30.41R
MEADVILLE      FAIR      32  23  69 SW6       30.38R
FRANKLIN*      NOT AVBL
NEW CASTLE     FAIR      31  29  92 CALM      30.43R
BEAVER COUNTY  NOT AVBL
BUTLER*        FAIR      33  25  72 SW5         N/A
PITTSBURGH INT PTSUNNY   34  25  69 CALM      30.42R
PITTSBURGH     FAIR      34  25  69 SE5       30.42R
INDIANA*       SUNNY     34  23  64 SW5       30.45R
LATROBE        SUNNY     36  21  55 CALM      30.43S
WASHINGTON CO* FAIR      36  23  59 CALM      30.45S
$$

PAZ004>006-010>012-017>019-024>028-033>037-041-042-045-046-049>053-191500-
CENTRAL PENNSYLVANIA

CITY           SKY/WX    TMP DP  RH WIND       PRES   REMARKS
BRADFORD       FAIR      31  17  56 W10       30.34R
DUBOIS         FAIR      31  20  63 W5        30.37R
CLEARFIELD     FAIR      29  22  75 SW5       30.40S
JOHNSTOWN      FAIR      31  19  61 NW6       30.36R
ALTOONA        FAIR      33  20  58 SW5       30.41R
STATE COLLEGE  SUNNY     34  21  60 CALM      30.41R
WILLIAMSPORT   FAIR      34  21  59 VRB5      30.44R
SELINSGROVE    FAIR      35  24  64 CALM      30.45R
FT INDIANTOWN  FAIR      38  19  44 SE3       30.45R
CAPITAL CITY   FAIR      40  17  39 VRB3      30.46R
HARRISBURG     FAIR      40  24  53 CALM      30.45R
YORK           FAIR      40  21  46 NE3       30.45R
$$

PAZ038>040-043-044-047-048-054-055-060>062-067>071-191500-
EASTERN PENNSYLVANIA

CITY           SKY/WX    TMP DP  RH WIND       PRES   REMARKS
SCRANTON       FAIR      35  20  54 W6        30.41R
MOUNT POCONO   FAIR      31  20  63 NW8       30.35R
ALLENTOWN      FAIR      39  19  44 CALM      30.44S
QUAKERTOWN*    SUNNY     37  19  48 VRB3      30.44S
READING        FAIR      40  22  48 CALM      30.44S
LANCASTER      FAIR      40  20  44 CALM      30.45S
COATESVILLE    FAIR      37  18  44 VRB6      30.45R
POTTSTOWN      FAIR      38  20  48 VRB3      30.46S
BLUE BELL      FAIR      37  21  52 CALM      30.46S
DOYLESTOWN     FAIR      40  19  43 NE6       30.43S
WILLOW GROVE   NOT AVBL
NORTH PHILA    FAIR      43  20  39 NE9       30.47S
PHILADELPHIA   FAIR      42  19  39 NE8       30.46S
$$



 

View Past Reports for State College, PA.

Products Courtesy of NOAA-NWS
NWS Information Parsing Script by Ken True at Saratoga Weather - Script by SE Lincoln Weather.